Tracking 29892 objects as of 21-Nov-2024
HD Live streaming from Space Station
objects crossing your sky now

DELTA 1 DEB

Track DELTA 1 DEB now!
10-day predictions


NORAD ID: 7072
Int'l Code: 1973-086BQ
Perigee: 1,494.8 km
Apogee: 1,510.3 km
Inclination: 101.8 °
Period: 115.9 minutes
Semi major axis: 7873 km
RCS: 0.1288 m2 (medium)
Launch date: November 6, 1973
Source: United States (US)
Launch site: AIR FORCE WESTERN TEST RANGE (AFWTR)

Note: This is SATELLITE DEBRIS
Your satellite tracking list
Your tracking list is empty




NASA's NSSDC Master Catalog

Two Line Element Set (TLE):
1  7072U 73086BQ  24326.13782590  .00000021  00000-0  46784-3 0  9997
2  7072 101.7559 287.8282 0009866 210.8985 215.4387 12.42640933314377
Source of the keplerian elements: AFSPC